"America/Chicago Time","Lifetime Energy (kWh)","Power (W)","AC Volts RMS (V) ","AC Amps RMS (mA)","Grid Frequency (Hz)","Inverter Temperature (C)"
"06/08/12 05:42:40","125.637","0.0","213.87","0","60.0","20"
"06/08/12 05:47:40","125.6373","0.0","213.86","0","60.03","20"
"06/08/12 05:52:42","125.6376","14.9","213.36","86","60.03","20"
"06/08/12 05:57:41","125.6379","11.0","213.68","7","60.03","20"
"06/08/12 06:02:41","125.6383","0.0","213.39","0","60.03","21"
"06/08/12 06:07:40","125.6388","14.3","213.21","22","60.0","21"
"06/08/12 06:12:41","125.6393","14.0","212.65","28","60.0","22"
"06/08/12 06:17:42","125.6401","12.9","212.38","10","60.0","22"
"06/08/12 06:22:41","125.6409","6.7","216.35","225","60.03","22"
"06/08/12 06:27:40","125.6418","7.2","211.13","276","60.0","22"
"06/08/12 06:32:41","125.6429","16.0","213.59","4","60.03","23"
"06/08/12 06:37:42","125.6443","19.0","214.1","230","60.0","23"
"06/08/12 06:42:41","125.6459","25.2","213.7","82","60.03","23"
"06/08/12 06:47:40","125.6479","27.6","213.74","216","60.0","24"
"06/08/12 06:52:40","125.6501","34.6","215.6","248","60.03","24"
"06/08/12 06:57:40","125.6526","39.3","214.66","136","60.03","25"
"06/08/12 07:02:41","125.6553","43.7","214.83","187","60.0","25"
"06/08/12 07:07:41","125.6585","36.8","213.97","129","60.03","26"
"06/08/12 07:12:40","125.6619","40.2","214.71","107","60.03","26"
"06/08/12 07:17:41","125.6657","47.9","214.33","389","60.0","27"
"06/08/12 07:22:42","125.6696","60.0","214.63","220","59.96","27"
"06/08/12 07:27:40","125.6735","40.7","214.18","180","60.0","28"
"06/08/12 07:32:41","125.6773","45.5","214.23","321","60.03","28"
"06/08/12 07:37:41","125.6814","44.1","214.74","320","60.0","29"
"06/08/12 07:42:41","125.6856","63.5","214.36","176","60.07","29"
"06/08/12 07:47:41","125.6911","92.4","214.93","446","60.0","30"
"06/08/12 07:52:41","125.6984","100.7","214.65","484","60.03","31"
"06/08/12 07:57:41","125.7065","108.3","215.84","514","60.0","31"
"06/08/12 08:02:41","125.7149","107.6","215.64","511","60.0","32"
"06/08/12 08:07:40","125.7235","110.9","214.52","529","60.0","33"
"06/08/12 08:12:41","125.7317","100.1","214.33","481","60.0","33"
"06/08/12 08:17:42","125.7392","83.2","213.44","409","60.0","34"
"06/08/12 08:22:42","125.7437","48.2","213.61","233","60.0","33"
"06/08/12 08:27:42","125.7466","42.8","212.19","307","60.0","33"
"06/08/12 08:32:41","125.7498","38.8","214.16","265","60.03","32"
"06/08/12 08:37:42","125.7536","50.2","213.99","188","60.03","32"
"06/08/12 08:42:42","125.7578","58.0","215.07","222","60.03","32"
"06/08/12 08:47:41","125.7649","99.2","214.45","474","60.03","32"
"06/08/12 08:52:42","125.773","106.6","214.42","510","60.03","32"
"06/08/12 08:57:41","125.7803","80.4","214.43","399","60.03","32"
"06/08/12 09:02:40","125.7874","81.0","214.65","402","60.03","32"
"06/08/12 09:07:41","125.7975","142.4","215.09","666","60.0","33"
"06/08/12 09:12:42","125.8086","113.4","214.96","540","60.03","34"
"06/08/12 09:17:41","125.8169","100.8","214.63","485","60.0","34"
"06/08/12 09:22:41","125.8235","71.9","214.55","362","60.0","33"
"06/08/12 09:27:41","125.8289","68.5","214.19","349","60.0","33"
"06/08/12 09:32:41","125.8339","63.6","212.4","325","60.0","32"
"06/08/12 09:37:41","125.839","69.0","214.25","350","60.0","32"
"06/08/12 09:42:41","125.8446","76.4","214.08","378","60.03","32"
"06/08/12 09:47:41","125.8503","68.2","213.56","343","60.03","32"
"06/08/12 09:52:40","125.8557","72.7","214.04","366","60.0","32"
"06/08/12 09:57:42","125.8615","74.3","216.72","366","60.03","32"
"06/08/12 10:02:41","125.8675","86.4","215.67","423","60.03","32"
"06/08/12 10:07:41","125.8747","123.7","216.03","581","60.0","32"
"06/08/12 10:12:41","125.8829","94.4","215.54","450","60.0","32"
"06/08/12 10:17:40","125.889","65.7","214.54","332","60.0","32"
"06/08/12 10:22:40","125.8931","46.6","214.51","321","60.03","32"
"06/08/12 10:27:41","125.8966","44.5","215.47","327","60.03","32"
"06/08/12 10:32:40","125.8994","38.4","215.19","339","60.03","32"
"06/08/12 10:37:42","125.903","47.4","214.55","359","60.03","31"
"06/08/12 10:42:41","125.9069","55.2","213.79","106","60.0","31"
"06/08/12 10:47:42","125.9108","47.6","214.66","95","60.0","31"
"06/08/12 10:52:42","125.9146","47.4","214.11","292","60.0","31"
"06/08/12 10:57:41","125.9184","48.3","214.25","341","60.03","31"
"06/08/12 11:02:41","125.9217","40.0","214.27","303","60.03","31"
"06/08/12 11:07:41","125.9246","36.7","209.44","153","60.03","30"
"06/08/12 11:12:42","125.9282","39.4","216.23","99","60.03","30"
"06/08/12 11:17:41","125.9317","43.6","216.4","245","60.0","30"
"06/08/12 11:22:42","125.9355","53.2","215.29","387","60.0","30"
"06/08/12 11:27:41","125.9397","43.0","214.98","407","60.03","31"
"06/08/12 11:32:42","125.9475","119.4","213.45","571","60.0","31"
"06/08/12 11:37:41","125.9559","90.7","214.93","441","60.03","32"
"06/08/12 11:42:41","125.9631","87.8","214.74","427","60.0","32"
"06/08/12 11:47:41","125.9693","56.8","215.06","84","60.0","32"
"06/08/12 11:52:42","125.9731","55.1","215.64","147","60.03","32"
"06/08/12 11:57:42","125.9789","73.1","215.29","365","60.0","32"
"06/08/12 12:02:42","125.983","51.5","215.44","198","60.0","31"
"06/08/12 12:07:41","125.9869","46.7","215.29","138","60.03","31"
"06/08/12 12:12:41","125.9908","57.2","214.08","183","60.03","31"
"06/08/12 12:17:41","125.9944","30.4","214.36","132","60.0","31"
"06/08/12 12:22:41","125.996","11.5","213.64","94","60.0","30"
"06/08/12 12:27:41","125.9972","21.1","214.22","257","60.03","30"
"06/08/12 12:32:40","126.0001","53.1","214.4","274","60.0","29"
"06/08/12 12:37:41","126.004","45.0","215.28","208","60.0","29"
"06/08/12 12:42:41","126.0078","41.1","215.2","80","60.03","29"
"06/08/12 12:47:41","126.0117","42.7","214.6","360","60.0","29"
"06/08/12 12:52:41","126.0154","51.8","215.04","125","60.03","29"
"06/08/12 12:57:41","126.0186","34.1","214.62","178","60.0","29"
"06/08/12 13:02:41","126.0215","31.8","215.2","270","60.0","29"
"06/08/12 13:07:42","126.0245","36.0","214.66","281","60.0","28"
"06/08/12 13:12:40","126.0282","55.7","215.3","267","60.03","28"
"06/08/12 13:17:40","126.032","36.7","215.59","84","60.0","28"
"06/08/12 13:22:41","126.0358","55.7","215.91","171","60.0","28"
"06/08/12 13:27:41","126.0397","41.0","215.05","226","60.03","28"
"06/08/12 13:32:41","126.0435","47.6","214.89","244","60.03","28"
"06/08/12 13:37:41","126.0459","27.1","213.54","260","60.0","28"
"06/08/12 13:42:42","126.0485","29.6","215.93","288","60.03","28"
"06/08/12 13:47:42","126.0512","31.9","214.64","85","60.0","27"
"06/08/12 13:52:40","126.0542","40.5","214.37","173","60.0","27"
"06/08/12 13:57:41","126.0581","63.6","215.79","199","60.03","27"
"06/08/12 14:02:41","126.064","93.0","215.53","449","60.03","27"
"06/08/12 14:07:40","126.0712","106.5","215.12","512","60.03","27"
"06/08/12 14:12:42","126.0786","92.0","214.98","445","60.03","28"
"06/08/12 14:17:41","126.0873","82.5","213.97","405","60.03","29"
"06/08/12 14:22:42","126.0945","92.2","215.01","446","60.03","30"
"06/08/12 14:27:41","126.0981","32.4","214.92","134","60.03","30"
"06/08/12 14:32:42","126.099","14.3","213.55","164","60.0","29"
"06/08/12 14:37:42","126.0996","13.9","214.19","16","60.0","28"
"06/08/12 14:42:42","126.1018","28.3","214.82","249","60.03","28"
"06/08/12 14:47:40","126.1052","52.4","215.46","113","60.0","27"
"06/08/12 14:52:40","126.1124","115.5","215.5","544","60.03","27"
"06/08/12 14:57:41","126.1194","82.4","216.39","400","60.03","28"
"06/08/12 15:02:41","126.1262","92.9","214.53","452","60.0","28"
"06/08/12 15:07:41","126.1326","70.5","214.51","351","60.07","28"
"06/08/12 15:12:41","126.1368","49.7","214.54","311","60.0","28"
"06/08/12 15:17:41","126.1407","40.2","215.1","352","60.03","29"
"06/08/12 15:22:40","126.1446","46.9","214.56","275","60.0","28"
"06/08/12 15:27:41","126.1535","180.5","216.85","817","60.0","30"
"06/08/12 15:32:41","126.1667","158.6","217.25","730","60.0","31"
"06/08/12 15:37:41","126.1771","111.4","215.59","531","60.0","31"
"06/08/12 15:42:41","126.1833","74.1","214.99","367","60.03","30"
"06/08/12 15:47:40","126.1891","70.2","214.9","353","60.03","30"
"06/08/12 15:52:42","126.1934","47.4","214.45","413","60.03","30"
"06/08/12 15:57:42","126.1973","40.1","214.27","352","60.07","30"
"06/08/12 16:02:41","126.2011","56.1","214.87","135","60.03","29"
"06/08/12 16:07:41","126.2084","101.3","215.87","479","60.0","29"
"06/08/12 16:12:41","126.2174","145.3","216.51","675","60.0","30"
"06/08/12 16:17:41","126.2274","64.2","215.51","326","60.03","30"
"06/08/12 16:22:41","126.2313","41.9","214.31","372","60.0","29"
"06/08/12 16:27:40","126.2353","46.4","215.18","227","60.0","29"
"06/08/12 16:32:41","126.2391","54.0","214.8","383","60.0","29"
"06/08/12 16:37:41","126.2475","128.5","216.69","600","60.0","29"
"06/08/12 16:42:42","126.2571","91.1","215.96","445","60.03","29"
"06/08/12 16:47:42","126.2648","52.9","214.79","343","60.03","29"
"06/08/12 16:52:41","126.2716","80.6","215.53","394","60.03","29"
"06/08/12 16:57:41","126.2762","37.5","215.18","113","60.03","28"
"06/08/12 17:02:41","126.2789","26.5","214.92","71","60.03","28"
"06/08/12 17:07:42","126.283","65.0","215.8","202","60.0","27"
"06/08/12 17:12:41","126.2881","46.0","215.37","108","60.0","27"
"06/08/12 17:17:40","126.2937","61.1","215.78","318","60.03","27"
"06/08/12 17:22:42","126.2992","70.5","216.23","350","60.0","27"
"06/08/12 17:27:41","126.3047","74.1","215.93","367","60.0","27"
"06/08/12 17:32:42","126.31","65.8","216.09","333","60.03","27"
"06/08/12 17:37:41","126.3147","56.4","215.35","161","60.03","27"
"06/08/12 17:42:42","126.3185","47.4","216.23","366","60.0","27"
"06/08/12 17:47:42","126.3223","51.4","215.21","221","60.03","26"
"06/08/12 17:52:41","126.3258","26.4","214.42","133","60.0","26"
"06/08/12 17:57:42","126.3278","30.1","214.53","194","60.03","26"
"06/08/12 18:02:41","126.3303","47.7","216.31","332","60.03","26"
"06/08/12 18:07:42","126.333","29.1","215.55","255","60.0","25"
"06/08/12 18:12:41","126.3364","60.4","214.27","346","60.03","25"
"06/08/12 18:17:41","126.3397","36.9","213.57","203","60.03","26"
"06/08/12 18:22:41","126.3422","25.9","214.19","70","60.0","25"
"06/08/12 18:27:42","126.3443","34.9","214.12","38","60.03","25"
"06/08/12 18:32:41","126.346","28.2","213.23","266","60.07","25"
"06/08/12 18:37:42","126.3476","13.4","213.91","112","60.03","25"
"06/08/12 18:42:42","126.3489","12.4","212.97","120","60.03","25"
"06/08/12 18:47:42","126.35","12.8","213.6","1","60.07","25"
"06/08/12 18:52:42","126.3507","15.1","212.95","3","60.03","24"
"06/08/12 18:57:41","126.3515","13.2","213.06","12","60.03","24"
"06/08/12 19:02:42","126.353","15.0","212.8","21","60.03","24"
"06/08/12 19:07:41","126.3544","13.6","213.18","0","60.03","24"
"06/08/12 19:12:42","126.3553","5.5","213.45","182","60.03","23"
"06/08/12 19:17:41","126.356","11.7","213.59","6","60.03","23"
"06/08/12 19:22:42","126.3566","0.0","213.52","0","60.03","23"
"06/08/12 19:27:40","126.357","11.0","213.53","35","60.03","23"
"06/08/12 19:32:42","126.3574","0.0","213.47","0","60.0","23"
"06/08/12 19:37:42","126.3579","10.9","212.86","65","60.03","23"
"06/08/12 19:42:42","126.3583","13.5","212.5","0","59.96","22"
"06/08/12 19:47:42","126.3589","15.1","212.66","4","60.03","22"
"06/08/12 19:52:41","126.3595","14.2","212.9","4","60.03","22"
"06/08/12 19:57:41","126.3602","8.1","212.39","243","60.0","22"
"06/08/12 20:02:42","126.3607","13.1","212.67","2","60.03","22"
"06/08/12 20:07:42","126.3613","13.0","213.51","0","60.03","22"
"06/09/12 05:42:41","126.362","0.0","214.88","0","60.03","18"
"06/09/12 05:47:41","126.3623","0.0","215.0","0","60.03","18"
"06/09/12 05:52:42","126.3627","0.0","214.7","0","60.03","19"
"06/09/12 05:57:42","126.363","11.6","214.15","13","60.03","19"
"06/09/12 06:02:42","126.3637","13.9","215.42","2","60.03","19"
"06/09/12 06:07:42","126.3643","13.9","214.93","2","60.0","19"
"06/09/12 06:12:43","126.3651","0.0","215.57","181","60.0","20"
"06/09/12 06:17:43","126.3658","0.0","214.36","0","60.03","20"
"06/09/12 06:22:42","126.3666","4.5","213.95","166","60.03","20"
"06/09/12 06:27:41","126.3675","16.9","214.05","193","60.0","20"
"06/09/12 06:32:42","126.3688","16.7","213.63","39","60.03","21"
"06/09/12 06:37:42","126.3701","12.8","213.93","33","60.03","21"
"06/09/12 06:42:41","126.3715","16.1","214.37","46","60.0","22"
"06/09/12 06:47:43","126.3729","14.4","214.5","115","60.0","22"
"06/09/12 06:52:42","126.3744","11.5","213.35","14","60.0","22"
"06/09/12 06:57:42","126.3764","20.9","213.82","166","60.03","22"
"06/09/12 07:02:42","126.3788","33.5","213.95","132","60.0","23"
"06/09/12 07:07:41","126.3813","39.6","214.79","214","60.0","23"
"06/09/12 07:12:42","126.3846","35.5","213.72","59","60.03","23"
"06/09/12 07:17:41","126.3866","33.5","213.18","179","60.0","24"
"06/09/12 07:22:41","126.39","36.1","213.68","362","60.0","24"
"06/09/12 07:27:41","126.3923","45.2","214.93","352","60.0","25"
"06/09/12 07:32:42","126.3954","25.0","214.23","78","60.0","25"
"06/09/12 07:37:42","126.3979","66.1","214.74","332","60.07","25"
"06/09/12 07:42:43","126.4016","30.8","215.12","74","60.0","26"
"06/09/12 07:47:43","126.4048","28.5","215.02","117","60.0","26"
"06/09/12 07:52:41","126.407","61.6","215.19","267","60.0","26"
"06/09/12 07:57:42","126.4114","78.4","214.91","390","60.03","27"
"06/09/12 08:02:42","126.4152","101.1","214.86","485","60.03","27"
"06/09/12 08:07:41","126.4188","33.9","213.27","337","60.0","27"
"06/09/12 08:12:42","126.4234","101.6","214.69","484","60.0","28"
"06/09/12 08:17:41","126.4285","42.2","213.93","372","60.0","28"
"06/09/12 08:22:41","126.4358","102.8","215.06","493","60.03","29"
"06/09/12 08:27:42","126.4432","50.7","214.43","365","60.03","30"
"06/09/12 08:32:41","126.449","106.4","214.91","508","60.0","31"
"06/09/12 08:37:42","126.4553","36.2","213.35","157","60.03","31"
"06/09/12 08:42:43","126.462","75.2","214.57","371","60.0","32"
"06/09/12 08:47:42","126.4718","132.7","216.05","616","60.0","32"
"06/09/12 08:52:42","126.4801","137.1","215.98","639","60.0","33"
"06/09/12 08:57:42","126.4887","140.7","216.41","653","60.0","33"
"06/09/12 09:02:41","126.4989","130.5","215.35","617","60.0","34"
"06/09/12 09:07:41","126.5085","28.1","214.37","87","60.03","34"
"06/09/12 09:12:41","126.5184","135.0","216.05","623","60.0","34"
"06/09/12 09:17:41","126.5291","137.2","216.31","640","60.0","35"
"06/09/12 09:22:42","126.5399","140.4","216.73","645","60.0","35"
"06/09/12 09:27:42","126.5509","143.3","216.95","668","60.03","36"
"06/09/12 09:32:41","126.5622","145.9","216.36","678","60.03","36"
"06/09/12 09:37:43","126.5738","149.2","215.98","691","60.0","37"
"06/09/12 09:42:42","126.5855","151.8","216.27","705","60.03","37"
"06/09/12 09:47:42","126.5974","154.5","216.44","710","60.03","38"
"06/09/12 09:52:42","126.6093","156.9","216.44","711","60.03","38"
"06/09/12 09:57:41","126.6215","158.5","216.08","734","60.0","38"
"06/09/12 10:02:41","126.6338","161.5","216.16","745","60.03","38"
"06/09/12 10:07:42","126.6463","157.2","215.5","724","60.03","38"
"06/09/12 10:12:42","126.6584","157.8","215.49","733","60.0","38"
"06/09/12 10:17:41","126.6708","161.9","215.74","744","60.03","39"
"06/09/12 10:22:42","126.6836","166.7","216.13","766","60.0","39"
"06/09/12 10:27:42","126.6968","161.9","216.07","746","60.03","39"
"06/09/12 10:32:42","126.7095","165.3","216.22","761","60.0","39"
"06/09/12 10:37:42","126.7224","175.3","216.21","802","60.0","39"
"06/09/12 10:42:42","126.7352","174.5","216.91","798","60.0","39"
"06/09/12 10:47:41","126.7489","176.5","217.48","803","60.03","39"
"06/09/12 10:52:41","126.7627","178.6","217.05","814","60.03","40"
"06/09/12 10:57:42","126.7769","179.3","216.72","822","60.03","40"
"06/09/12 11:02:41","126.7914","190.8","217.45","858","60.03","41"
"06/09/12 11:07:41","126.8061","186.9","216.99","850","60.0","41"
"06/09/12 11:12:42","126.8207","188.3","217.25","851","60.0","42"
"06/09/12 11:17:41","126.8352","188.6","217.12","863","60.0","42"
"06/09/12 11:22:41","126.8502","194.6","217.36","881","60.03","42"
"06/09/12 11:27:43","126.8628","195.2","217.96","887","60.03","42"
"06/09/12 11:32:42","126.8761","194.4","217.83","896","60.03","42"
"06/09/12 11:37:42","126.8908","190.4","216.72","867","60.0","42"
"06/09/12 11:42:42","126.9054","190.1","217.47","856","60.0","42"
"06/09/12 11:47:42","126.9201","192.0","217.2","873","60.03","42"
"06/09/12 11:52:42","126.9346","186.7","217.31","851","60.0","42"
"06/09/12 11:57:42","126.949","188.6","217.29","852","60.03","43"
"06/09/12 12:02:42","126.9637","187.1","217.55","851","60.07","42"
"06/09/12 12:07:42","126.978","184.2","217.85","838","60.0","42"
"06/09/12 12:12:42","126.9909","155.6","216.83","718","60.0","41"
"06/09/12 12:17:41","127.005","91.9","215.37","439","60.0","42"
"06/09/12 12:22:41","127.0182","160.4","217.27","738","60.0","42"
"06/09/12 12:27:42","127.0325","186.4","217.38","847","60.0","42"
"06/09/12 12:32:43","127.0471","194.4","217.59","879","60.03","42"
"06/09/12 12:42:43","127.0712","186.4","217.65","843","60.03","42"
"06/09/12 12:47:42","127.0843","194.8","217.84","875","60.03","41"
"06/09/12 12:52:41","127.0963","118.7","215.91","557","60.0","41"
"06/09/12 12:57:41","127.1107","193.7","216.85","881","60.03","41"
"06/09/12 13:02:41","127.1257","192.2","217.67","868","60.03","41"
"06/09/12 13:07:41","127.1404","193.4","217.06","879","60.03","42"
"06/09/12 13:12:41","127.1554","188.1","216.84","856","60.0","42"
"06/09/12 13:17:42","127.1701","187.6","217.7","847","60.03","42"
"06/09/12 13:22:42","127.1845","186.1","217.98","844","60.03","42"
"06/09/12 13:27:43","127.1985","185.1","217.03","836","60.0","42"
"06/09/12 13:32:42","127.2129","191.2","217.68","862","60.0","42"
"06/09/12 13:37:42","127.2274","184.4","218.15","837","60.0","43"
"06/09/12 13:42:42","127.2417","182.1","217.05","828","60.0","43"
"06/09/12 13:47:43","127.256","183.2","217.17","833","60.03","43"
"06/09/12 13:52:43","127.2701","179.8","216.8","820","60.0","43"
"06/09/12 13:57:42","127.2839","177.1","216.83","816","60.03","43"
"06/09/12 14:02:42","127.2979","179.7","218.04","818","60.0","43"
"06/09/12 14:07:42","127.3119","178.7","216.87","816","60.03","43"
"06/09/12 14:12:43","127.3257","170.8","217.11","785","60.0","43"
"06/09/12 14:17:42","127.3392","177.8","216.35","807","60.03","43"
"06/09/12 14:22:41","127.3529","175.3","215.71","801","60.03","43"
"06/09/12 14:27:42","127.3663","173.4","216.51","794","60.0","44"
"06/09/12 14:32:43","127.3795","160.3","216.52","732","60.0","44"
"06/09/12 14:37:41","127.3923","166.0","215.51","770","60.0","44"
"06/09/12 14:42:41","127.405","161.6","215.96","744","60.0","44"
"06/09/12 14:47:42","127.4175","157.0","216.02","725","60.0","44"
"06/09/12 14:52:42","127.4298","161.4","216.78","740","60.0","44"
"06/09/12 14:57:41","127.4423","166.2","216.77","763","60.03","45"
"06/09/12 15:02:41","127.4552","159.1","215.75","735","60.03","45"
"06/09/12 15:07:43","127.4668","137.8","215.8","643","60.03","45"
"06/09/12 15:12:42","127.4765","125.7","214.8","589","60.0","44"
"06/09/12 15:17:41","127.4867","137.3","215.59","643","60.0","44"
"06/09/12 15:22:43","127.4975","127.8","214.66","597","60.0","44"
"06/09/12 15:27:41","127.5058","86.5","214.32","423","60.0","43"
"06/09/12 15:32:42","127.5131","94.7","214.32","458","60.03","43"
"06/09/12 15:37:41","127.521","113.9","214.39","541","60.0","43"
"06/09/12 15:42:43","127.5315","139.4","216.11","650","60.03","43"
"06/09/12 15:47:42","127.5418","124.4","215.47","583","60.03","43"
"06/09/12 15:52:42","127.5511","113.7","215.93","536","60.03","43"
"06/09/12 15:57:41","127.5588","92.6","215.04","442","60.0","43"
"06/09/12 16:02:42","127.5663","103.9","215.51","499","60.03","41"
"06/09/12 16:07:43","127.5761","131.6","215.7","616","60.03","41"
"06/09/12 16:12:42","127.5856","111.5","215.43","531","60.03","40"
"06/09/12 16:17:41","127.5947","122.6","216.05","580","60.0","39"
"06/09/12 16:22:42","127.6037","117.6","215.47","552","60.0","38"
"06/09/12 16:27:42","127.6121","103.3","215.04","499","60.03","38"
"06/09/12 16:32:42","127.6121","112.4","215.14","538","60.03","37"
"06/09/12 16:37:42","127.6202","82.8","214.64","410","60.03","37"
"06/09/12 16:42:42","127.6277","100.9","214.96","482","60.0","36"
"06/09/12 16:47:42","127.6341","86.0","215.77","420","60.0","35"
"06/09/12 16:52:42","127.6411","108.2","215.09","514","60.03","35"
"06/09/12 16:57:42","127.6492","99.1","215.7","475","60.0","34"
"06/09/12 17:02:42","127.6565","89.0","215.38","432","60.03","34"
"06/09/12 17:07:43","127.6631","82.4","215.4","403","60.03","33"
"06/09/12 17:12:42","127.6693","75.6","215.25","375","60.03","32"
"06/09/12 17:17:42","127.675","72.1","215.82","364","60.03","32"
"06/09/12 17:22:41","127.6804","65.0","215.52","327","60.0","32"
"06/09/12 17:27:42","127.6854","63.4","215.53","319","60.03","31"
"06/09/12 17:32:43","127.6899","59.0","215.78","98","60.03","31"
"06/09/12 17:37:42","127.6937","54.7","214.42","201","60.03","30"
"06/09/12 17:42:41","127.6976","47.6","213.69","311","60.0","30"
"06/09/12 17:47:41","127.7012","41.7","213.56","134","60.03","29"
"06/09/12 17:52:42","127.7047","47.2","213.66","284","60.03","29"
"06/09/12 17:57:42","127.7078","43.5","213.85","216","60.0","28"
"06/09/12 18:02:43","127.7106","31.0","214.64","169","60.03","28"
"06/09/12 18:07:41","127.7131","34.5","214.11","245","60.03","28"
"06/09/12 18:12:42","127.7154","32.2","213.56","213","60.0","27"
"06/09/12 18:17:43","127.7173","23.6","213.57","38","60.0","27"
"06/09/12 18:22:42","127.719","31.1","213.41","51","60.03","27"
"06/09/12 18:27:41","127.7205","11.1","213.54","5","60.03","27"
"06/09/12 18:32:44","127.7218","12.9","214.09","36","60.03","27"
"06/09/12 18:37:43","127.7229","13.0","213.11","25","60.0","27"
"06/09/12 18:42:42","127.7239","7.4","213.25","132","60.03","26"
"06/09/12 18:47:43","127.7248","0.0","213.13","168","60.0","26"
"06/09/12 18:52:41","127.7255","12.0","213.5","82","60.0","26"
"06/09/12 18:57:42","127.7261","0.8","213.84","0","60.03","26"
"06/09/12 19:02:43","127.7267","0.0","214.3","0","60.03","26"
"06/09/12 19:07:41","127.7272","0.0","213.66","0","60.03","26"
"06/09/12 19:12:42","127.7278","0.3","213.68","0","60.0","26"
"06/09/12 19:17:43","127.7282","0.0","214.34","58","60.03","26"
"06/09/12 19:22:43","127.7287","0.0","213.9","0","60.03","26"
"06/09/12 19:27:41","127.7291","0.0","213.9","0","60.03","25"
"06/09/12 19:32:42","127.7295","0.0","213.48","0","60.0","25"
"06/09/12 19:37:42","127.7298","11.3","213.98","17","60.0","25"
"06/09/12 19:42:43","127.7301","14.5","213.47","0","60.03","25"
"06/09/12 19:47:43","127.7303","0.0","213.51","0","60.0","25"
"06/09/12 19:52:42","127.7304","6.6","213.48","222","60.03","25"
"06/10/12 05:52:45","127.7315","7.5","213.68","186","60.03","22"
"06/10/12 06:07:00","127.7324","0.0","212.52","0","60.03","23"
"06/10/12 06:12:00","127.7329","11.7","213.13","8","60.0","23"
"06/10/12 06:21:59","127.7342","16.2","213.39","6","60.03","23"
"06/10/12 06:27:00","127.7351","12.4","214.2","138","60.03","24"
"06/10/12 06:32:00","127.7361","19.8","213.91","180","60.03","24"
"06/10/12 06:37:01","127.7375","13.9","213.53","9","60.07","24"
"06/10/12 06:42:01","127.739","15.1","213.48","124","60.03","25"
"06/10/12 06:46:59","127.7408","33.3","213.27","159","60.07","25"
"06/10/12 06:51:59","127.7429","28.3","212.75","38","60.03","25"
"06/10/12 06:57:01","127.7452","27.5","213.6","235","60.0","25"
"06/10/12 07:02:00","127.7478","40.7","213.74","189","60.03","26"
"06/10/12 07:07:00","127.7507","45.1","213.52","149","60.03","26"
"06/10/12 07:11:59","127.7539","50.0","213.93","374","60.0","26"
"06/10/12 07:17:00","127.7574","52.5","213.3","186","60.0","27"
"06/10/12 07:22:00","127.7612","49.2","213.74","223","60.0","27"
"06/10/12 07:27:00","127.7651","56.8","213.97","175","60.03","27"
"06/10/12 07:32:00","127.769","49.3","213.86","368","60.0","27"
"06/10/12 07:37:00","127.7729","38.4","214.46","224","60.0","28"
"06/10/12 07:42:00","127.7768","46.7","214.7","294","60.03","28"
"06/10/12 07:47:01","127.7807","56.4","213.62","365","60.0","29"